• Processing (Info)

  • MPEC 2023-R40 : 2023 RT

    The following Minor Planet Electronic Circular may be linked-to from your own Web pages, but must not otherwise be redistributed electronically.

    A form allowing access to any MPEC is at the bottom of this page.


    Read MPEC 2023-R39 Read MPEC 2023-R41


    M.P.E.C. 2023-R40                             Issued 2023 September 7, 20:46 UT
    
         The Minor Planet Electronic Circulars contain information on unusual
             minor planets, routine data on comets and natural satellites,
             and occasional editorial announcements.  They are published
        on behalf of Division F of the International Astronomical Union by the
              Minor Planet Center, Smithsonian Astrophysical Observatory,
                              Cambridge, MA 02138, U.S.A.
    			  
                 Prepared using the Tamkin Foundation Computer Network
    
                                  MPC@CFA.HARVARD.EDU
                URL https://www.minorplanetcenter.net/    ISSN 1523-6714
    
                                     2023 RT                                 
    
    
    Observations:
         K23R00T  C2023 09 06.46852022 44 31.580+13 42 26.41               VER040F52
         K23R00T* C2023 09 06.47992922 44 33.685+13 39 13.92         20.67wXER040F52
         K23R00T  C2023 09 06.49160822 44 35.852+13 35 56.06         20.35wXER040F52
         K23R00T KC2023 09 06.86983022 46 08.35 +11 49 38.8          20.1 GVER040L01
         K23R00T KC2023 09 06.87137922 46 08.64 +11 49 13.1          20.3 GVER040L01
         K23R00T KC2023 09 06.87293122 46 08.93 +11 48 47.6          20.2 GVER040L01
         K23R00T KC2023 09 06.87448622 46 09.20 +11 48 21.9          20.1 GVER040L01
         K23R00T KC2023 09 06.87604722 46 09.51 +11 47 56.0          20.3 GVER040L01
         K23R00T KB2023 09 06.94291722 46 23.61 +11 29 30.5          20.0 GVER040I93
         K23R00T KB2023 09 06.94727722 46 24.37 +11 28 17.5          20.4 GVER040I93
         K23R00T KB2023 09 06.95155722 46 25.18 +11 27 07.3          20.0 GVER040I93
         K23R00T KC2023 09 07.00886122 46 34.99 +11 11 18.2                VER040204
         K23R00T KC2023 09 07.01499322 46 35.85 +11 09 36.3          20.2 GVER040K51
         K23R00T KC2023 09 07.01727722 46 36.54 +11 08 59.3                VER040204
         K23R00T KC2023 09 07.02099622 46 36.96 +11 07 57.3          20.4 GVER040K51
         K23R00T KC2023 09 07.02587722 46 38.16 +11 06 36.8          20.4 GVER040204
         K23R00T KC2023 09 07.02698922 46 38.12 +11 06 18.0          20.4 GVER040K51
         K23R00T 1C2023 09 07.84403622 49 39.760+07 26 03.20               VER040246
         K23R00T 1C2023 09 07.84431922 49 39.780+07 25 58.60               VER040246
         K23R00T 1C2023 09 07.84460322 49 39.830+07 25 53.50               VER040246
    
    Observer details:
    204 Schiaparelli Observatory.  Observers L. Buzzi, G. Galli.  0.84-m f/3.5
        reflector + CCD.
    246 Klet Observatory-KLENOT.  Observers M. Tichy, J. Ticha, M. Janda, M.
        Honkova.  Measurer M. Tichy.  1.06-m f/2.7 Reflector + 2048x2048 CCD.
    F52 Pan-STARRS 2, Haleakala.  Observers J. Bulger, K. Chambers, T. Dukes, T.
        Lowe, P. Minguez, A. Schultz, I. Smith.  Measurers S. Chastel, J.
        Fairlamb, M. Huber, Y. Ramanjooloo, R. Wainscoat, R. Weryk, K. Chambers,
        T. de Boer, J. Bulger, H. Gao, C.-C. Lin, T. Lowe, E. Magnier, P. Minguez,
        A. Schultz, I. Smith.  1.8-m Ritchey-Chretien + CCD.
    I93 St Pardon de Conques.  Observer F. Losse.  0.40-m f/3.7 reflector + CMO.
    K51 Osservatorio del Celado, Castello Tesino.  Observer M. Campestrin.  0.80-m
        f/4 reflector + CCD.
    L01 Visnjan Observatory, Tican.  Observers K. Korlevic, I. Lyon.  Measurer K.
        Korlevic.  1.0-m f/2.9 reflector + CCD.
    
    Orbital elements:
    2023 RT                                                  Earth MOID = 0.0683 AU
    Epoch 2023 Sept. 13.0 TT = JDT 2460200.5                MPC                     
    M  65.15871              (2000.0)            P               Q                  
    n   0.79951987     Peri.   94.29877     -0.12889995     +0.98962488             
    a   1.1496965      Node   167.73588     -0.98630416     -0.12130057             
    e   0.1944399      Incl.   17.38306     -0.10290241     -0.07699852             
    P   1.23           H   25.16          G   0.15           U   9                  
    Residuals in seconds of arc
    230906 F52  0.1+  0.1-    230906 L01  0.4-  0.1-    230907 K51  0.3-  0.1+
    230906 F52  0.0   0.5+    230906 I93  0.5+  0.2+    230907 204  0.0   0.3-
    230906 F52  0.0   0.3+    230906 I93  0.4-  0.8-    230907 K51  0.1+  0.1-
    230906 L01  0.1+  0.1-    230906 I93  0.2-  0.3-    230907 246  1.2+  1.0+
    230906 L01  0.0   0.2-    230907 204  0.3+  0.1-    230907 246  0.7+  0.9+
    230906 L01  0.2-  0.0     230907 K51  0.0   0.1-    230907 246  0.7+  0.2+
    230906 L01  0.6-  0.0     230907 204  0.1-  0.1+
    
    Ephemeris:
    2023 RT                  a,e,i = 1.15, 0.19, 17                  q = 0.9261
    Date    TT    R. A. (2000) Decl.     Delta      r    Elong.  Phase     V
    2023 08 08    16 04 09.7 +78 19 05   0.1667  0.9892    76.7    93.9    24.6
    ...
    2023 08 23    20 52 21.5 +68 46 50   0.09844 1.0305    98.5    76.1    22.8
    ...
    2023 08 31    22 11 28.1 +44 13 09   0.07286 1.0547   126.6    50.2    21.5
    ...
    2023 09 06    22 42 42.9 +15 55 38   0.07036 1.0734   157.1    21.5    20.6
    2023 09 07    22 46 34.4 +11 15 07   0.07181 1.0765   162.1    16.8    20.5
    2023 09 08    22 50 08.6 +06 46 38   0.07376 1.0797   166.8    12.3    20.4
    ...
    2023 09 14    23 06 52.0 -14 17 36   0.09422 1.0987   168.5    10.5    20.9
    ...
    2023 09 22    23 21 20.1 -29 00 47   0.1357  1.1241   150.6    26.0    22.3
    ...
    2023 10 07    23 38 40.7 -38 12 58   0.2306  1.1709   133.7    38.1    23.8
    
    A. U. Tomatic                (C) Copyright 2023 MPC           M.P.E.C. 2023-R40
    


    Read MPEC 2023-R39 Read MPEC 2023-R41


    MPEC number:

    Enter an MPEC number in one of the following forms:

    • 1997-B01 (the full form)
    • J97B01 (the packed version of the full form)
    • B01 (the abbreviated form)